Gadsden, AL

4:20 AM CDT on July 17, 2019 (GMT -0500)
Gadsden Municipal

Weather History for KGAD - May, 2019

Change the Weather History Date:

Monday, May 27, 2019

  Actual Average Record
Temperature  
Mean Temperature 78 °F -  
Max Temperature 93 °F 79 °F 94 °F (1931)
Min Temperature 64 °F 58 °F 48 °F (1935)
Cooling Degree Days 14    
Growing Degree Days 28 (Base 50)    
Moisture  
Dew Point 70 °F    
Average Humidity 80    
Maximum Humidity 100    
Minimum Humidity 44    
Precipitation  
Precipitation 0.00 in - - ()
Sea Level Pressure  
Sea Level Pressure 30.04 in    
Wind  
Wind Speed 1 mph ()    
Max Wind Speed 10 mph    
Max Gust Speed -    
Visibility 7.6 miles    
Events      
Averages and records for this station are not official NWS values.
T = Trace of Precipitation, MM = Missing Value Source: Averaged Metar Reports

Daily Weather History Graph

Daily Weather History Graph

Search for Another Location

Airport or City:

Astronomy

May. 27, 2019 Rise Set
Actual Time 5:36 AM CDT 7:47 PM CDT
Civil Twilight 5:07 AM CDT 8:15 PM CDT
Nautical Twilight 4:33 AM CDT 8:50 PM CDT
Astronomical Twilight 3:55 AM CDT 9:28 PM CDT
Moon 1:56 AM CDT (5/27) 1:21 PM CDT (5/27)
Length of Visible Light 15h 07m
Length of Day
14h 11m
Last Quarter, 40% of the Moon is Illuminated
May 27
Last Quarter
Jun 3
New
Jun 10
First Quarter
Jun 17
Full
Jun 25
Last Quarter

Hourly Weather History & Observations

Time (CDT) Temp. Heat Index Dew Point Humidity Pressure Visibility Wind Dir Wind Speed Gust Speed Precip Events Conditions
12:56 AM 68.0 °F - 68.0 °F 100% 30.09 in 5.0 mi Calm Calm - N/A   Clear
1:54 AM 66.2 °F - 66.2 °F 100% 30.08 in 1.8 mi Calm Calm - N/A   Clear
1:56 AM 66.0 °F - 66.0 °F 100% 30.07 in 1.2 mi Calm Calm - N/A   Clear
2:04 AM 66.2 °F - 66.2 °F 100% 30.07 in 3.0 mi Calm Calm - N/A   Clear
2:54 AM 64.4 °F - - N/A% 30.07 in 1.8 mi Calm Calm - N/A   Clear
2:56 AM 64.9 °F - - N/A% 30.06 in 1.2 mi Calm Calm - N/A   Clear
3:07 AM 64.4 °F - 64.4 °F 100% 30.07 in 3.0 mi Calm Calm - N/A   Clear
3:37 AM 66.2 °F - 66.2 °F 100% 30.07 in 2.0 mi Calm Calm - N/A   Clear
3:45 AM 64.4 °F - 64.4 °F 100% 30.07 in 5.0 mi Calm Calm - N/A   Clear
3:56 AM 64.9 °F - - N/A% 30.06 in 10.0 mi Calm Calm - N/A   Clear
4:56 AM 64.0 °F - 64.0 °F 100% 30.06 in 9.0 mi Calm Calm - N/A   Clear
5:56 AM 64.0 °F - - N/A% 30.08 in 7.0 mi Calm Calm - N/A   Clear
6:56 AM 68.0 °F - - N/A% 30.10 in 10.0 mi Calm Calm - N/A   Clear
7:56 AM 73.9 °F - 72.0 °F 93% 30.11 in 10.0 mi Calm Calm - N/A   Clear
9:56 AM 84.9 °F 93.3 °F 75.0 °F 72% 30.09 in 10.0 mi Calm Calm - N/A   Clear
10:56 AM 89.1 °F 96.0 °F 72.0 °F 57% 30.09 in 10.0 mi Variable 5.8 mph - N/A   Clear
11:56 AM 90.0 °F 95.4 °F 70.0 °F 52% 30.07 in 10.0 mi Variable 3.5 mph - N/A   Clear
12:56 PM 93.0 °F 97.4 °F 68.0 °F 44% 30.06 in 10.0 mi SW 10.4 mph - N/A   Partly Cloudy
1:56 PM 91.0 °F 96.6 °F 70.0 °F 50% 30.03 in 10.0 mi SW 6.9 mph - N/A   Scattered Clouds
2:56 PM 91.0 °F 96.6 °F 70.0 °F 50% 30.01 in 10.0 mi WSW 5.8 mph - N/A   Scattered Clouds
3:56 PM 90.0 °F 95.4 °F 70.0 °F 52% 29.99 in 10.0 mi SW 8.1 mph - N/A   Clear
4:56 PM 89.1 °F 95.0 °F 71.1 °F 55% 29.98 in 10.0 mi SW 6.9 mph - N/A   Scattered Clouds
5:56 PM 89.1 °F 96.0 °F 72.0 °F 57% 29.97 in 10.0 mi Calm Calm - N/A   Clear
6:56 PM 87.1 °F 96.3 °F 75.0 °F 67% 29.96 in 10.0 mi Calm Calm - N/A   Scattered Clouds
7:56 PM 82.0 °F 89.4 °F 75.9 °F 82% 29.96 in 10.0 mi Calm Calm - N/A   Clear
8:56 PM 77.0 °F - 73.9 °F 90% 29.96 in 10.0 mi SW 3.5 mph - N/A   Clear
9:56 PM 73.9 °F - 72.0 °F 93% 29.97 in 10.0 mi Calm Calm - N/A   Clear
10:56 PM 72.0 °F - 72.0 °F 100% 29.98 in 10.0 mi Calm Calm - N/A   Clear
11:56 PM 71.1 °F - 71.1 °F 100% 29.96 in 10.0 mi Calm Calm - N/A   Clear